Regional Weather Roundup
Issued by NWS

Home | Current Version | Previous Version | Graphics & Text | Print | Product List | Glossary On
Versions: 1 2 3 4 5 6 7 8 9 10 11 12 13 14 15 16 17 18 19 20 21 22 23 24 25 26 27 28 29 30 31 32 33 34 35 36 37 38 39 40 41 42 43 44 45 46 47 48 49 50
000
ASUS43 KLOT 301600
RWRIL

ILLINOIS REGIONAL WEATHER ROUNDUP
NATIONAL WEATHER SERVICE CHICAGO/ROMEOVILLE IL
1100 AM CDT MON MAR 30 2015

NOTE: "FAIR" INDICATES FEW OR NO CLOUDS BELOW 12,000 FEET WITH NO
SIGNIFICANT WEATHER AND/OR OBSTRUCTIONS TO VISIBILITY.

* THESE STATIONS ARE NOT UNDER NWS QUALITY CONTROL. THEY ALSO MAY NOT
  REPORT WEATHER SUCH AS PRECIPITATION OR FOG.

ILZ001-002-007-009-015-016-024-301700-
NORTHWEST ILLINOIS

CITY           SKY/WX    TMP DP  RH WIND       PRES   REMARKS
MOLINE         SUNNY     59  26  28 W17G25    30.08F
$$

ILZ003-004-008-010-011-017-018-301700-
NORTH CENTRAL ILLINOIS

CITY           SKY/WX    TMP DP  RH WIND       PRES   REMARKS
ROCKFORD       NOT AVBL
$$

ILZ005-006-012>014-019>023-301700-
NORTHEAST ILLINOIS

CITY           SKY/WX    TMP DP  RH WIND       PRES   REMARKS
CHICAGO-OHARE  PTSUNNY   51  29  42 W13       30.05F
CHICAGO-MIDWAY NOT AVBL
AURORA         MOSUNNY   52  32  46 W14       30.07F
WAUKEGAN       NOT AVBL
DUPAGE AIRPORT MOSUNNY   53  30  41 W13       30.06S
WHEELING       MOSUNNY   53  26  35 W13       30.06F
NORTHERLY ISL    N/A     51  25  36 W8          N/A
$$

LMZ740>746-301700-
SOUTHERN LAKE MICHIGAN

STATION/POSITION SKY/WX   TEMP    WIND        PRES    VSBY  WAVE
                          AIR SEA DIR/SP/G                  HT/PER
                          (F)     (DEG/KT/KT) (MB)    (MI)  (FT/S)
HARRISON CRIB              46     270/ 13/ 16   N/A
BURNHAM HARBOR             49     280/  6/ 11   N/A
CALUMET HARBOR             51     270/  9/ 13 1017.0R
BURNS HARBOR               42     260/ 10/ 12 1018.6R
MICHIGAN CITY              38     220/ 12/ 13   N/A
$$

ILZ025>027-034>036-040-047-049-050-058-095>099-301700-
WEST-CENTRAL ILLINOIS

CITY           SKY/WX    TMP DP  RH WIND       PRES   REMARKS
$$

ILZ028>032-037-038-041>044-048-051>054-059>061-301700-
CENTRAL ILLINOIS

CITY           SKY/WX    TMP DP  RH WIND       PRES   REMARKS
PEORIA         NOT AVBL
SPRINGFIELD    SUNNY     59  33  37 W12       30.15F
TAYLORVILLE    NOT AVBL
$$

ILZ033-039-045-046-055>057-062-063-301700-
EAST-CENTRAL ILLINOIS

CITY           SKY/WX    TMP DP  RH WIND       PRES   REMARKS
CHAMPAIGN      SUNNY     55  35  47 W13       30.14R
$$

ILZ079-100>102-301700-
SOUTHWEST ILLINOIS

CITY           SKY/WX    TMP DP  RH WIND       PRES   REMARKS
CAHOKIA*       SUNNY     58  31  35 SW5       30.20S
$$

ILZ064>066-069>071-074>076-080>082-084>086-088>090-092>094-301700-
SOUTH-CENTRAL ILLINOIS

CITY           SKY/WX    TMP DP  RH WIND       PRES   REMARKS
CARBONDALE     MOSUNNY   58  32  37 N5        30.23S
MARION         MOSUNNY   57  30  35 NE7       30.24R
$$

ILZ067-068-072-073-078-083-087-091-301700-
SOUTHEAST ILLINOIS

CITY           SKY/WX    TMP DP  RH WIND       PRES   REMARKS
$$

ABBREVIATIONS USED IN REMARKS
   TC - TEMPERATURE IN CELSIUS
  WCI - WIND CHILL INDEX
   HX - HEAT INDEX
  VSB - VISIBILITY
$$




USA.gov is the U.S. government's official web portal to all federal, state and local government web resources and services.